Radiation Dose at Monitoring Post of Fukushima Daini Nuclear Power Station
Date,Time,MP-1(microSv/h),MP-2(microSv/h),MP-3(microSv/h),MP-4(microSv/h),MP-5(microSv/h),MP-6(microSv/h),MP-7(microSv/h),Wind Direction,Wind Velocity(m/s),Rain
2018/04/08,00:00,0.315,0.202,0.323,0.305,0.297,0.160,0.097,north-northwest,3.9,No
2018/04/08,00:10,0.317,0.201,0.322,0.306,0.296,0.160,0.096,northwest,2.9,No
2018/04/08,00:20,0.315,0.200,0.321,0.305,0.296,0.161,0.097,northwest,2.4,No
2018/04/08,00:30,0.315,0.202,0.322,0.305,0.297,0.161,0.097,west-northwest,3.2,No
2018/04/08,00:40,0.315,0.201,0.322,0.303,0.297,0.159,0.098,west,3.1,No
2018/04/08,00:50,0.314,0.201,0.322,0.306,0.297,0.160,0.097,west,1.8,No
2018/04/08,01:00,0.314,0.201,0.321,0.305,0.297,0.160,0.096,west,1.4,No
2018/04/08,01:10,0.316,0.201,0.322,0.304,0.298,0.160,0.097,west,2.2,No
2018/04/08,01:20,0.315,0.201,0.322,0.305,0.299,0.160,0.097,west-northwest,1.5,No
2018/04/08,01:30,0.315,0.201,0.322,0.307,0.297,0.160,0.096,north-northwest,2.7,No
2018/04/08,01:40,0.314,0.200,0.321,0.306,0.297,0.161,0.096,north-northwest,3.7,No
2018/04/08,01:50,0.317,0.201,0.323,0.307,0.297,0.159,0.098,north-northwest,3.4,No
2018/04/08,02:00,0.315,0.202,0.322,0.305,0.298,0.160,0.096,north-northwest,3.6,No
2018/04/08,02:10,0.315,0.202,0.323,0.306,0.295,0.159,0.097,north-northwest,2.5,No
2018/04/08,02:20,0.315,0.201,0.321,0.307,0.296,0.160,0.096,north-northwest,2.4,No
2018/04/08,02:30,0.317,0.201,0.322,0.305,0.297,0.159,0.097,west-northwest,2.8,No
2018/04/08,02:40,0.315,0.202,0.322,0.306,0.296,0.160,0.097,west-northwest,5.3,No
2018/04/08,02:50,0.315,0.201,0.323,0.306,0.295,0.160,0.097,west-northwest,3.9,No
2018/04/08,03:00,0.316,0.200,0.323,0.306,0.298,0.160,0.097,north-northwest,1.7,No
2018/04/08,03:10,0.316,0.199,0.323,0.303,0.297,0.160,0.096,north,2.2,No
2018/04/08,03:20,0.316,0.202,0.320,0.305,0.297,0.159,0.097,northeast,0.7,No
2018/04/08,03:30,0.316,0.201,0.322,0.305,0.296,0.160,0.098,south,1.4,No
2018/04/08,03:40,0.316,0.200,0.322,0.306,0.297,0.160,0.096,west-southwest,1.1,No
2018/04/08,03:50,0.315,0.201,0.322,0.306,0.296,0.159,0.097,west-northwest,0.9,No
2018/04/08,04:00,0.317,0.200,0.322,0.306,0.296,0.159,0.097,northwest,1.6,No
2018/04/08,04:10,0.315,0.201,0.322,0.306,0.297,0.161,0.096,-,CALM,No
2018/04/08,04:20,0.314,0.201,0.321,0.306,0.296,0.160,0.097,south,1.0,No
2018/04/08,04:30,0.316,0.201,0.321,0.306,0.297,0.161,0.096,-,CALM,No
2018/04/08,04:40,0.316,0.201,0.321,0.305,0.296,0.160,0.096,northeast,2.3,No
2018/04/08,04:50,0.315,0.200,0.321,0.305,0.297,0.161,0.097,north,1.8,No
2018/04/08,05:00,0.316,0.201,0.323,0.306,0.297,0.161,0.096,north-northwest,1.7,No
2018/04/08,05:10,0.316,0.201,0.323,0.307,0.297,0.160,0.097,west-northwest,1.0,No
2018/04/08,05:20,0.317,0.201,0.323,0.305,0.296,0.160,0.097,-,CALM,No
2018/04/08,05:30,0.317,0.201,0.323,0.304,0.296,0.160,0.098,-,CALM,No
2018/04/08,05:40,0.317,0.200,0.323,0.307,0.297,0.159,0.096,south-southwest,0.8,No
2018/04/08,05:50,0.315,0.201,0.322,0.306,0.296,0.160,0.097,west-southwest,2.0,No
2018/04/08,06:00,0.317,0.200,0.323,0.306,0.296,0.159,0.097,west-southwest,1.8,No
2018/04/08,06:10,0.317,0.200,0.323,0.303,0.297,0.160,0.097,west-southwest,1.8,No
2018/04/08,06:20,0.316,0.201,0.322,0.306,0.297,0.160,0.097,-,CALM,No
2018/04/08,06:30,0.315,0.200,0.322,0.306,0.297,0.161,0.096,north-northwest,1.1,No
2018/04/08,06:40,0.316,0.201,0.323,0.307,0.296,0.160,0.097,north-northwest,1.7,No
2018/04/08,06:50,0.317,0.201,0.323,0.306,0.296,0.160,0.097,north-northwest,1.1,No
2018/04/08,07:00,0.317,0.201,0.321,0.306,0.297,0.160,0.097,north-northeast,1.1,No
2018/04/08,07:10,0.315,0.201,0.322,0.306,0.296,0.160,0.097,northeast,0.6,No
2018/04/08,07:20,0.317,0.201,0.322,0.307,0.297,0.160,0.096,east-northeast,1.4,No
2018/04/08,07:30,0.316,0.200,0.322,0.306,0.296,0.161,0.096,southeast,1.0,No
2018/04/08,07:40,0.315,0.200,0.321,0.306,0.296,0.160,0.097,east-northeast,1.0,No
2018/04/08,07:50,0.314,0.200,0.320,0.304,0.298,0.161,0.097,north,1.1,No
2018/04/08,08:00,0.317,0.200,0.321,0.306,0.297,0.159,0.096,west-northwest,3.0,No
2018/04/08,08:10,0.315,0.199,0.322,0.304,0.296,0.161,0.097,west,6.9,No
2018/04/08,08:20,0.316,0.200,0.324,0.304,0.298,0.160,0.097,west,4.8,No
2018/04/08,08:30,0.316,0.200,0.323,0.306,0.297,0.160,0.096,west-northwest,4.0,No
2018/04/08,08:40,0.314,0.200,0.322,0.304,0.299,0.159,0.097,west-northwest,5.9,No
2018/04/08,08:50,0.316,0.201,0.323,0.307,0.299,0.161,0.096,west,4.1,No
2018/04/08,09:00,0.317,0.200,0.322,0.306,0.297,0.161,0.097,northwest,3.3,No
2018/04/08,09:10,0.317,0.200,0.322,0.305,0.300,0.161,0.096,northwest,4.2,No
2018/04/08,09:20,0.318,0.202,0.323,0.308,0.298,0.161,0.097,west-northwest,4.4,No
2018/04/08,09:30,0.317,0.201,0.324,0.306,0.297,0.161,0.097,west-northwest,6.3,No
2018/04/08,09:40,0.318,0.201,0.323,0.306,0.299,0.160,0.098,north-northwest,5.6,No
2018/04/08,09:50,0.317,0.203,0.324,0.307,0.298,0.161,0.097,north-northwest,5.8,No
2018/04/08,10:00,0.316,0.200,0.324,0.305,0.300,0.160,0.098,north,6.8,No
2018/04/08,10:10,0.317,0.202,0.323,0.307,0.297,0.161,0.096,north,7.2,No
2018/04/08,10:20,0.316,0.202,0.324,0.304,0.299,0.160,0.097,north,4.0,No
2018/04/08,10:30,0.318,0.202,0.325,0.306,0.299,0.160,0.097,north,2.8,No
2018/04/08,10:40,0.318,0.201,0.324,0.306,0.298,0.160,0.097,north,2.5,No
2018/04/08,10:50,0.317,0.202,0.324,0.307,0.299,0.161,0.097,north-northwest,2.6,No
2018/04/08,11:00,0.318,0.201,0.321,0.307,0.298,0.160,0.097,west,6.1,No
2018/04/08,11:10,0.316,0.202,0.323,0.307,0.299,0.160,0.097,north-northwest,5.2,No
2018/04/08,11:20,0.318,0.201,0.322,0.306,0.297,0.161,0.097,west-northwest,5.6,No
2018/04/08,11:30,0.316,0.201,0.323,0.307,0.301,0.161,0.097,west-northwest,6.3,No
2018/04/08,11:40,0.317,0.202,0.324,0.306,0.297,0.161,0.097,northwest,6.9,No
2018/04/08,11:50,0.319,0.201,0.325,0.307,0.298,0.161,0.097,northwest,5.0,No
2018/04/08,12:00,0.316,0.202,0.325,0.307,0.298,0.161,0.098,west-northwest,7.7,No
2018/04/08,12:10,0.317,0.201,0.323,0.306,0.299,0.161,0.098,northwest,6.5,No
2018/04/08,12:20,0.316,0.201,0.325,0.306,0.300,0.161,0.098,west-northwest,7.3,No
2018/04/08,12:30,0.318,0.202,0.322,0.306,0.299,0.161,0.097,west-northwest,6.7,No
2018/04/08,12:40,0.316,0.201,0.325,0.308,0.299,0.160,0.097,north-northwest,5.3,No
2018/04/08,12:50,0.319,0.202,0.323,0.304,0.299,0.161,0.097,west-northwest,4.9,No
2018/04/08,13:00,0.318,0.201,0.325,0.307,0.298,0.161,0.097,west-northwest,4.7,No
2018/04/08,13:10,0.319,0.202,0.323,0.306,0.301,0.161,0.097,west-northwest,6.0,No
2018/04/08,13:20,0.317,0.202,0.324,0.305,0.298,0.162,0.097,west-northwest,10.1,No
2018/04/08,13:30,0.317,0.201,0.322,0.308,0.300,0.160,0.097,northwest,7.1,No
2018/04/08,13:40,0.319,0.202,0.326,0.306,0.298,0.163,0.097,west-northwest,6.8,No
2018/04/08,13:50,0.317,0.201,0.323,0.307,0.300,0.161,0.097,west-northwest,9.5,No
2018/04/08,14:00,0.320,0.202,0.326,0.307,0.299,0.162,0.097,west,11.5,No
2018/04/08,14:10,0.319,0.202,0.323,0.305,0.299,0.161,0.096,west-northwest,7.6,No
2018/04/08,14:20,0.319,0.203,0.328,0.309,0.300,0.164,0.097,west-northwest,7.5,No
2018/04/08,14:30,0.317,0.202,0.324,0.306,0.301,0.162,0.098,west-northwest,8.5,No
2018/04/08,14:40,0.320,0.202,0.327,0.310,0.300,0.162,0.097,north-northwest,9.8,No
2018/04/08,14:50,0.318,0.202,0.323,0.307,0.299,0.162,0.097,north-northwest,8.6,No
2018/04/08,15:00,0.319,0.202,0.325,0.309,0.301,0.162,0.098,north-northwest,10.1,No
2018/04/08,15:10,0.318,0.203,0.325,0.308,0.301,0.163,0.097,north-northwest,8.2,No
2018/04/08,15:20,0.321,0.203,0.325,0.310,0.300,0.161,0.097,northwest,8.8,No
2018/04/08,15:30,0.318,0.202,0.327,0.310,0.299,0.163,0.097,west-northwest,9.3,No
2018/04/08,15:40,0.320,0.203,0.328,0.309,0.301,0.161,0.097,west-northwest,7.7,No
2018/04/08,15:50,0.321,0.203,0.328,0.310,0.298,0.162,0.097,west-northwest,9.2,No
2018/04/08,16:00,0.318,0.202,0.328,0.309,0.303,0.161,0.097,west-northwest,7.8,No
2018/04/08,16:10,0.321,0.202,0.326,0.309,0.300,0.163,0.098,northwest,8.1,No
2018/04/08,16:20,0.320,0.203,0.328,0.311,0.301,0.162,0.098,west-northwest,7.0,No
2018/04/08,16:30,0.320,0.203,0.328,0.312,0.299,0.163,0.097,west-northwest,9.2,No
2018/04/08,16:40,0.322,0.204,0.327,0.309,0.300,0.162,0.098,west-northwest,8.3,No
2018/04/08,16:50,0.321,0.203,0.327,0.309,0.301,0.162,0.097,west-northwest,7.4,No
2018/04/08,17:00,0.321,0.202,0.327,0.312,0.299,0.162,0.098,northwest,7.7,No
2018/04/08,17:10,0.321,0.202,0.326,0.309,0.302,0.164,0.098,northwest,7.8,No
2018/04/08,17:20,0.320,0.204,0.327,0.310,0.301,0.164,0.097,west-northwest,8.2,No
2018/04/08,17:30,0.321,0.204,0.328,0.310,0.303,0.163,0.098,west-northwest,7.9,No
2018/04/08,17:40,0.322,0.202,0.328,0.310,0.304,0.164,0.097,west-northwest,5.7,No
2018/04/08,17:50,0.321,0.203,0.328,0.309,0.303,0.163,0.098,west-northwest,8.2,No
2018/04/08,18:00,0.320,0.203,0.329,0.309,0.301,0.164,0.098,west-northwest,8.1,No
2018/04/08,18:10,0.321,0.203,0.328,0.311,0.301,0.162,0.098,west-northwest,7.2,No
2018/04/08,18:20,0.322,0.203,0.327,0.311,0.302,0.164,0.097,west-northwest,7.7,No
2018/04/08,18:30,0.321,0.204,0.328,0.311,0.302,0.163,0.098,west-northwest,9.3,No
2018/04/08,18:40,0.322,0.204,0.329,0.311,0.303,0.163,0.098,west-northwest,9.5,No
2018/04/08,18:50,0.323,0.203,0.327,0.311,0.303,0.164,0.097,west-northwest,9.5,No
2018/04/08,19:00,0.322,0.204,0.328,0.310,0.300,0.163,0.099,west-northwest,8.5,No
2018/04/08,19:10,0.321,0.203,0.327,0.310,0.301,0.162,0.098,west-northwest,10.3,No
2018/04/08,19:20,0.321,0.204,0.328,0.311,0.301,0.163,0.098,northwest,8.1,No
2018/04/08,19:30,0.321,0.204,0.328,0.311,0.301,0.163,0.098,northwest,8.4,No
2018/04/08,19:40,0.322,0.203,0.327,0.310,0.302,0.163,0.098,west-northwest,9.3,No
2018/04/08,19:50,0.321,0.203,0.328,0.310,0.301,0.163,0.098,northwest,9.2,No
2018/04/08,20:00,0.320,0.204,0.329,0.310,0.302,0.164,0.098,west-northwest,6.1,No
2018/04/08,20:10,0.322,0.204,0.328,0.311,0.301,0.163,0.098,west,5.1,No
2018/04/08,20:20,0.321,0.203,0.327,0.310,0.303,0.162,0.099,northwest,5.2,No
2018/04/08,20:30,0.323,0.204,0.329,0.310,0.301,0.163,0.097,west-northwest,5.3,No
2018/04/08,20:40,0.321,0.204,0.330,0.311,0.302,0.162,0.099,west-northwest,8.5,No
2018/04/08,20:50,0.322,0.203,0.327,0.310,0.302,0.164,0.098,west-northwest,8.6,No
2018/04/08,21:00,0.321,0.203,0.327,0.310,0.301,0.163,0.098,west-northwest,9.0,No
2018/04/08,21:10,0.321,0.203,0.326,0.310,0.302,0.163,0.098,west-northwest,10.1,No
2018/04/08,21:20,0.320,0.203,0.328,0.310,0.302,0.162,0.098,west-northwest,11.7,No
2018/04/08,21:30,0.323,0.204,0.329,0.312,0.302,0.163,0.097,west-northwest,8.6,No
2018/04/08,21:40,0.321,0.203,0.328,0.309,0.300,0.163,0.098,west-northwest,10.6,No
2018/04/08,21:50,0.320,0.204,0.329,0.310,0.302,0.163,0.098,west-northwest,8.1,No
2018/04/08,22:00,0.323,0.203,0.328,0.312,0.304,0.163,0.098,west-northwest,6.2,No
2018/04/08,22:10,0.321,0.203,0.327,0.309,0.302,0.163,0.097,west-northwest,6.6,Yes
2018/04/08,22:20,0.320,0.203,0.329,0.309,0.300,0.164,0.098,west-northwest,5.5,No
2018/04/08,22:30,0.322,0.203,0.328,0.311,0.303,0.164,0.098,west,4.5,No
2018/04/08,22:40,0.323,0.203,0.327,0.311,0.302,0.162,0.098,west,3.6,No
2018/04/08,22:50,0.321,0.203,0.328,0.311,0.301,0.163,0.098,west-northwest,3.3,No
2018/04/08,23:00,0.321,0.204,0.327,0.310,0.302,0.164,0.097,west-northwest,1.3,No
2018/04/08,23:10,0.322,0.204,0.328,0.310,0.301,0.163,0.098,west,2.5,No
2018/04/08,23:20,0.321,0.203,0.326,0.310,0.301,0.164,0.098,west-northwest,0.8,No
2018/04/08,23:30,0.319,0.203,0.327,0.310,0.302,0.163,0.099,northeast,0.6,No
2018/04/08,23:40,0.321,0.204,0.329,0.310,0.302,0.163,0.099,west-southwest,1.4,No
2018/04/08,23:50,0.322,0.204,0.328,0.310,0.301,0.163,0.098,west,1.6,No
